Sussex, NJ

6:29 PM EST on November 11, 2019 (GMT -0500)
Sussex

Weather History for KFWN - September, 2019

Change the Weather History Date:

Wednesday, September 4, 2019

  Actual Average Record
Temperature  
Mean Temperature 72 °F -  
Max Temperature 84 °F 78 °F 94 °F (1953)
Min Temperature 60 °F 53 °F 38 °F (1967)
Cooling Degree Days 7    
Growing Degree Days 22 (Base 50)    
Moisture  
Dew Point 63 °F    
Average Humidity 81    
Maximum Humidity 93    
Minimum Humidity 52    
Precipitation  
Precipitation 0.00 in - - ()
Sea Level Pressure  
Sea Level Pressure 29.94 in    
Wind  
Wind Speed 2 mph ()    
Max Wind Speed 12 mph    
Max Gust Speed 20 mph    
Visibility 9.9 miles    
Events Rain    
Averages and records for this station are not official NWS values.
T = Trace of Precipitation, MM = Missing Value Source: Averaged Metar Reports

Daily Weather History Graph

Daily Weather History Graph

Search for Another Location

Airport or City:

Astronomy

Sep. 04, 2019 Rise Set
Actual Time 6:27 AM EDT 7:26 PM EDT
Civil Twilight 5:59 AM EDT 7:54 PM EDT
Nautical Twilight 5:25 AM EDT 8:28 PM EDT
Astronomical Twilight 4:50 AM EDT 9:03 PM EDT
Moon 12:29 PM EDT (9/4) 10:55 PM EDT (9/4)
Length of Visible Light 13h 55m
Length of Day
12h 58m
Waxing Crescent, 34% of the Moon is Illuminated
Sep 4
Waxing Crescent
Sep 5
First Quarter
Sep 14
Full
Sep 21
Last Quarter
Sep 28
New

Hourly Weather History & Observations

Time (EDT) Temp. Heat Index Dew Point Humidity Pressure Visibility Wind Dir Wind Speed Gust Speed Precip Events Conditions
12:53 AM 64.0 °F - 61.0 °F 90% 30.02 in 10.0 mi Calm Calm - N/A   Scattered Clouds
1:53 AM 62.1 °F - 60.1 °F 93% 30.00 in 10.0 mi Calm Calm - N/A   Clear
2:53 AM 61.0 °F - 59.0 °F 93% 29.98 in 9.0 mi Calm Calm - N/A   Clear
3:53 AM 61.0 °F - 57.9 °F 90% 29.97 in 10.0 mi Calm Calm - N/A   Clear
4:53 AM 60.1 °F - 57.9 °F 93% 29.97 in 9.0 mi Calm Calm - N/A   Clear
5:41 AM 60.1 °F - 57.9 °F 93% 29.98 in 10.0 mi Calm Calm - N/A   Mostly Cloudy
5:53 AM 60.1 °F - 57.9 °F 93% 29.98 in 10.0 mi Calm Calm - N/A   Mostly Cloudy
6:13 AM 60.1 °F - 57.9 °F 93% 29.98 in 10.0 mi Calm Calm - N/A   Scattered Clouds
6:46 AM 61.0 °F - 59.0 °F 93% 29.98 in 10.0 mi Calm Calm - N/A   Mostly Cloudy
6:53 AM 62.1 °F - 60.1 °F 93% 29.97 in 10.0 mi Calm Calm - N/A   Mostly Cloudy
7:09 AM 64.0 °F - 61.0 °F 90% 29.98 in 10.0 mi Calm Calm - N/A   Overcast
7:53 AM 64.0 °F - 62.1 °F 93% 29.96 in 10.0 mi Calm Calm - N/A   Overcast
8:09 AM 64.9 °F - 62.1 °F 90% 29.97 in 10.0 mi Calm Calm - N/A   Overcast
8:53 AM 66.9 °F - 64.0 °F 90% 29.97 in 9.0 mi SSW 3.5 mph - N/A   Overcast
9:11 AM 68.0 °F - 64.9 °F 90% 29.96 in 10.0 mi Calm Calm - 0.00 in Rain Light Rain
9:53 AM 72.0 °F - 66.0 °F 81% 29.93 in 10.0 mi SSW 6.9 mph - 0.00 in   Overcast
10:53 AM 73.0 °F - 68.0 °F 84% 29.93 in 10.0 mi Variable 4.6 mph - N/A   Overcast
11:12 AM 73.0 °F - 68.0 °F 84% 29.93 in 10.0 mi Variable 4.6 mph - N/A   Overcast
11:53 AM 75.9 °F - 68.0 °F 76% 29.90 in 10.0 mi SSW 9.2 mph - N/A   Overcast
12:45 PM 81.0 °F 84.1 °F 69.1 °F 67% 29.89 in 10.0 mi SW 8.1 mph 18.4 mph N/A   Scattered Clouds
12:53 PM 81.0 °F 84.1 °F 69.1 °F 67% 29.88 in 10.0 mi SW 11.5 mph 19.6 mph N/A   Partly Cloudy
1:53 PM 82.0 °F 85.5 °F 69.1 °F 65% 29.87 in 10.0 mi SW 10.4 mph 19.6 mph N/A   Mostly Cloudy
2:53 PM 84.0 °F 88.4 °F 70.0 °F 63% 29.86 in 10.0 mi SSW 10.4 mph 16.1 mph N/A   Mostly Cloudy
3:53 PM 84.0 °F 88.4 °F 70.0 °F 63% 29.86 in 10.0 mi SW 6.9 mph - N/A   Mostly Cloudy
4:53 PM 84.0 °F 88.4 °F 70.0 °F 63% 29.84 in 10.0 mi SSW 8.1 mph - N/A   Clear
5:53 PM 82.0 °F 83.1 °F 63.0 °F 52% 29.88 in 10.0 mi NNW 6.9 mph - N/A   Partly Cloudy
6:53 PM 77.0 °F - 64.9 °F 66% 29.90 in 10.0 mi Calm Calm - N/A   Clear
7:53 PM 70.0 °F - 66.0 °F 87% 29.93 in 10.0 mi Calm Calm - N/A   Clear
8:53 PM 68.0 °F - 64.9 °F 90% 29.95 in 10.0 mi Calm Calm - N/A   Clear
9:53 PM 71.1 °F - 60.1 °F 68% 29.98 in 10.0 mi North 4.6 mph - N/A   Clear
10:53 PM 68.0 °F - 57.9 °F 70% 30.00 in 10.0 mi North 3.5 mph - N/A   Clear
11:53 PM 64.9 °F - 57.9 °F 78% 30.03 in 10.0 mi Variable 4.6 mph - N/A   Clear